GFSMW_850_temp_192.txt.gz
Temp
19 18 17 17 18 18 18 18 18 17 17 18 17 16 15 14 13 14 13 13 13 13 12 12 10 11 10 10 10 10 9 8 8 7 6 5 5 5 5 5 5 5 4
18 17 17 16 16 16 16 16 17 17 15 14 16 16 16 15 14 13 13 13 12 12 13 12 11 10 10 10 10 9 9 8 7 7 6 4 4 4 4 4 3 4 5
17 17 16 16 15 15 15 14 14 16 17 15 13 15 13 13 13 13 12 12 12 12 12 12 11 10 10 10 10 10 9 8 7 8 9 4 5 4 4 4 3 3 3
17 17 16 15 15 15 14 14 14 13 13 15 13 12 13 13 13 13 13 12 12 11 11 12 11 10 10 9 9 10 9 8 8 7 9 9 9 5 3 4 4 3 2
16 16 16 16 15 14 14 13 12 12 12 12 12 11 10 12 12 12 12 12 12 11 10 11 11 10 9 9 9 9 9 8 9 9 8 8 8 8 6 3 3 3 2
16 15 15 15 15 14 14 13 12 12 11 11 11 11 11 11 10 10 11 11 11 11 10 10 10 9 8 8 8 9 9 8 7 8 8 8 8 7 8 4 3 2 2
16 15 15 15 14 14 13 12 12 12 11 11 10 10 9 8 10 10 9 9 10 10 10 10 9 8 7 7 7 7 8 7 7 8 8 8 8 7 8 7 3 3 1
16 15 15 14 13 13 12 11 11 10 10 10 10 9 9 8 8 9 10 10 8 10 10 10 9 8 7 6 7 6 7 7 6 7 7 7 7 7 7 7 5 1 2
15 15 14 13 13 12 11 11 10 10 10 9 9 8 8 8 8 9 8 8 8 9 10 10 9 8 7 6 5 6 5 6 6 6 6 6 6 7 6 5 5 8 1
14 14 13 12 11 11 11 11 10 10 9 9 8 7 6 6 6 8 8 7 7 8 9 9 8 7 6 5 5 4 5 5 5 5 5 5 4 5 5 4 4 5 5
14 13 12 11 11 10 10 9 9 8 8 8 8 6 6 5 5 5 5 6 7 8 9 8 7 6 5 4 4 4 4 4 4 4 5 5 3 5 5 5 4 4 4
13 12 12 11 10 10 9 8 7 7 7 8 7 6 6 5 4 4 6 4 6 6 8 8 7 5 5 3 3 3 3 3 3 4 3 2 3 2 4 4 4 4 4
12 11 11 10 10 9 8 7 7 6 6 6 6 5 6 4 4 4 3 3 5 5 6 7 5 5 4 2 2 3 2 2 2 2 2 3 1 2 3 2 2 3 3
11 10 10 10 8 8 7 6 6 5 5 5 5 5 5 4 3 3 3 2 3 4 4 3 3 3 2 1 2 1 1 1 0 0 -0 -1 -0 1 1 1 1 1 -0
10 10 9 8 7 7 5 4 3 2 3 3 4 5 4 3 2 2 1 0 1 3 3 3 3 2 1 1 1 -0 -0 -1 -0 -0 -1 -1 -1 1 2 2 -0 -1 1
10 9 8 7 6 5 3 2 2 2 2 3 3 4 4 2 1 0 -0 -1 -0 0 1 1 1 0 -0 -0 -0 -1 -1 -1 -1 -2 -2 -2 1 2 1 -0 -1 -0 -0
9 8 7 6 5 4 3 2 2 2 2 3 3 4 2 1 0 -0 -1 -1 -1 -1 -1 -1 -1 -1 -2 -1 -1 -1 -1 -2 -2 -1 -1 -1 0 1 -1 -2 -1 -2 -1
7 6 6 5 4 4 3 2 1 2 2 2 3 3 2 1 -0 -1 -2 -1 -1 -1 -2 -2 -2 -2 -3 -2 -2 -2 -3 -2 -2 -1 -2 0 -0 -2 -3 -2 -2 -2 -2
6 6 5 5 4 4 2 0 0 1 2 2 2 1 1 0 -1 -1 -2 -2 -2 -2 -2 -2 -3 -3 -3 -2 -2 -2 -1 -2 -3 -3 -1 -1 -1 -0 -1 -1 -2 -2 -2
6 6 5 4 3 3 0 -1 -0 1 1 2 1 1 0 -0 -1 -1 -2 -2 -2 -2 -3 -3 -3 -2 -2 -2 -2 -2 -3 -2 -2 -1 -2 -1 -0 -1 -2 -1 -1 -1 -1
6 6 5 3 2 2 -0 -2 -1 -0 0 1 0 0 -0 -0 -1 -2 -3 -3 -3 -3 -3 -2 -3 -2 -2 -3 -2 -3 -3 -3 -3 -4 -4 -2 -1 -1 -1 -1 -1 -1 -0
6 6 4 2 2 1 -2 -1 -1 -1 -0 -0 -1 -1 -1 -1 -1 -2 -3 -3 -3 -3 -3 -3 -3 -3 -3 -3 -3 -4 -2 -2 -2 -2 -2 -2 -2 -2 -2 -2 -2 -2 -1
6 5 3 1 2 -1 -2 -2 -2 -2 -1 -2 -2 -2 -2 -2 -2 -2 -2 -3 -3 -3 -3 -3 -3 -3 -3 -4 -3 -3 -4 -2 -2 -2 -2 -2 -3 -3 -3 -3 -3 -2 -2
5 4 2 1 -0 -1 -1 -2 -3 -3 -2 -3 -3 -3 -3 -3 -3 -3 -2 -2 -3 -3 -2 -2 -3 -3 -4 -4 -4 -4 -4 -3 -3 -3 -4 -4 -4 -4 -4 -4 -4 -4 -3
3 2 2 0 -1 -1 -2 -2 -3 -3 -3 -3 -4 -3 -3 -4 -4 -4 -3 -3 -2 -2 -2 -2 -2 -2 -3 -3 -3 -3 -3 -3 -3 -4 -4 -5 -6 -5 -5 -5 -4 -4 -4
3 2 1 -1 -1 -1 -2 -2 -2 -3 -3 -3 -4 -4 -4 -4 -4 -4 -4 -4 -3 -3 -2 -2 -2 -2 -2 -1 -2 -3 -4 -4 -5 -6 -6 -6 -6 -5 -5 -5 -5 -5 -5

GFSMW_850_temp_195.txt.gz
Temp
17 17 18 18 19 19 19 17 16 15 14 13 13 13 14 15 15 15 15 14 15 14 13 13 13 12 11 11 11 11 10 9 9 9 7 7 6 6 6 5 5 5 5
16 16 16 16 17 16 16 18 17 16 15 14 14 14 13 13 14 14 13 14 13 14 13 13 13 12 11 11 10 11 10 9 8 8 7 5 5 5 5 5 4 4 4
16 16 16 15 15 15 14 14 16 15 15 13 12 13 12 12 12 12 13 13 13 13 13 13 12 12 10 11 10 10 10 9 8 8 9 4 5 4 4 4 4 4 4
16 16 15 15 15 14 14 14 13 13 14 15 13 11 11 11 11 11 11 11 12 12 12 12 12 12 11 11 10 9 10 9 8 7 9 10 10 5 3 4 3 3 3
16 15 15 15 15 14 14 13 12 12 12 12 13 12 11 11 10 10 10 10 9 11 11 11 12 11 11 11 8 8 8 9 9 8 8 8 8 10 5 3 3 3 3
15 15 15 15 14 14 13 13 13 12 11 11 11 11 11 10 10 9 9 9 9 9 9 10 10 11 10 10 8 7 8 7 8 8 8 8 8 8 7 4 2 2 2
15 15 14 14 13 13 12 11 11 11 11 11 10 10 10 11 10 10 9 8 8 8 8 9 8 9 10 10 8 7 7 7 7 8 8 8 8 9 7 7 3 2 2
14 14 14 13 12 11 11 11 10 10 10 10 10 10 9 9 9 9 9 8 7 7 7 6 7 7 8 9 9 7 7 6 5 6 7 8 8 8 8 7 4 1 1
14 14 13 12 12 11 11 10 10 10 10 8 8 8 8 8 7 7 6 6 6 6 5 5 5 6 6 7 7 8 6 6 5 5 6 7 7 7 7 7 6 6 0
13 13 12 12 11 10 10 9 9 9 9 9 9 8 7 7 7 6 5 5 5 4 4 4 4 5 5 6 7 7 6 5 5 5 5 6 6 6 6 7 7 4 6
13 12 11 11 10 10 9 8 8 7 7 7 7 6 6 6 6 5 5 5 5 4 4 4 6 6 5 6 6 6 5 5 4 4 5 5 5 6 6 6 5 5 4
11 10 10 10 9 9 8 8 8 8 6 5 4 4 3 4 4 4 5 5 4 3 3 4 5 5 5 6 6 5 5 4 4 4 4 4 5 5 5 4 3 3 3
10 10 10 9 9 8 8 7 7 6 5 4 3 2 2 3 4 4 4 4 3 2 3 4 4 5 5 6 5 5 5 4 4 4 4 4 4 4 2 2 3 2 1
10 9 9 8 8 7 7 6 6 5 5 3 3 2 2 4 3 3 3 3 2 1 2 2 4 5 5 4 4 4 3 3 2 3 3 3 3 3 2 2 2 1 1
9 9 7 7 7 6 6 5 5 4 4 3 2 2 2 3 3 3 2 2 0 0 0 1 2 3 4 3 3 2 1 2 2 2 2 2 1 0 1 1 1 0 1
7 7 6 6 6 5 5 4 4 4 3 2 2 2 2 2 2 2 2 -0 -1 -1 -1 -0 0 1 1 1 2 1 0 1 1 1 -0 -0 -0 0 0 -0 -0 -0 2
6 6 6 6 5 5 5 4 4 3 3 1 -0 0 1 2 2 2 -0 -1 -1 -1 -1 -1 -1 -0 0 -0 -0 0 0 -0 -0 -0 -0 -1 -1 -1 -1 -1 -1 -0 1
6 6 6 6 6 5 5 4 3 3 1 -1 -1 -0 1 2 1 0 -1 -1 -2 -2 -2 -2 -1 -1 -1 -1 -1 -1 -1 -1 -1 -0 -0 -0 -1 -1 -2 -2 -1 0 0
6 6 6 6 6 5 4 3 3 1 -1 -0 -1 -0 0 1 0 -1 -1 -2 -2 -2 -2 -2 -2 -2 -2 -2 -2 -2 -2 -2 -1 -1 -1 -1 -1 -2 -2 -2 -1 -1 -1
6 6 6 6 5 4 3 3 2 1 -1 -2 -1 -1 -0 -0 -1 -1 -2 -2 -3 -3 -3 -3 -3 -3 -3 -4 -3 -2 -2 -2 -2 -2 -2 -2 -3 -2 -2 -2 -2 -2 -2
6 6 6 4 4 3 2 2 1 -1 -2 -2 -2 -2 -1 -1 -2 -2 -2 -2 -3 -3 -3 -3 -4 -4 -4 -4 -3 -3 -3 -3 -3 -3 -3 -3 -3 -2 -2 -2 -2 -2 -1
6 6 4 4 3 2 2 1 -1 -2 -2 -3 -2 -2 -2 -2 -2 -3 -3 -3 -4 -4 -4 -4 -4 -4 -4 -4 -3 -3 -3 -3 -3 -3 -3 -4 -4 -4 -3 -2 -3 -3 -3
6 5 5 4 4 2 1 -0 -1 -2 -2 -3 -3 -3 -3 -3 -3 -3 -3 -4 -4 -4 -4 -4 -4 -5 -4 -4 -4 -3 -3 -3 -2 -3 -3 -3 -4 -2 -2 -4 -4 -3 -3
5 5 4 3 2 2 1 -1 -2 -2 -2 -3 -3 -3 -3 -4 -4 -4 -4 -4 -4 -4 -3 -4 -4 -4 -4 -4 -4 -4 -5 -4 -4 -4 -3 -3 -2 -3 -4 -4 -4 -3 -3
4 4 2 2 2 1 -1 -2 -3 -3 -3 -3 -4 -4 -4 -4 -4 -4 -4 -4 -3 -3 -3 -3 -3 -3 -4 -4 -4 -4 -4 -4 -4 -3 -3 -4 -4 -4 -4 -4 -4 -4 -4
4 3 2 2 1 0 -2 -3 -2 -3 -3 -3 -3 -4 -4 -5 -4 -4 -4 -4 -4 -4 -3 -3 -3 -3 -3 -4 -4 -4 -3 -3 -3 -3 -2 -3 -4 -4 -4 -4 -5 -5 -5

GFSMW_850_temp_198.txt.gz
Temp
16 16 16 17 17 17 18 17 17 15 15 15 14 14 15 14 13 13 13 14 14 14 14 13 13 13 12 12 13 13 11 11 10 10 8 8 7 7 7 7 8 7 8
16 16 16 16 16 16 16 16 16 15 15 15 15 15 14 12 13 13 13 13 13 13 13 13 13 13 13 12 11 11 11 10 9 9 8 5 5 5 6 6 7 7 6
15 15 15 15 16 15 14 14 14 14 14 14 14 14 14 13 13 13 12 12 11 12 12 11 12 12 13 13 12 12 10 10 10 9 10 5 6 4 4 5 5 5 5
15 15 15 14 14 14 14 14 13 13 13 13 13 13 13 13 12 11 11 11 11 11 10 10 11 11 11 11 12 11 10 8 10 7 8 9 9 5 3 4 4 4 4
15 15 14 14 13 13 13 13 12 12 12 12 12 11 11 12 11 10 10 10 10 11 11 10 10 10 9 11 11 11 9 7 8 8 9 8 9 9 6 2 3 3 3
15 14 14 13 13 12 12 12 12 11 11 11 11 11 10 11 10 10 10 10 9 9 10 10 10 9 9 8 9 8 8 7 7 7 7 7 7 8 8 7 2 3 2
14 14 13 13 12 12 12 11 11 11 11 10 10 9 9 9 9 8 9 9 9 9 8 7 7 7 8 7 7 8 8 6 6 8 6 6 6 7 8 8 3 2 1
13 13 13 12 12 12 11 11 10 10 10 9 9 8 8 8 8 8 8 8 8 8 8 6 6 6 5 6 6 6 7 7 6 6 6 5 5 5 6 8 7 1 1
13 13 12 11 11 10 10 10 9 9 9 9 8 8 8 7 7 7 6 6 6 5 5 5 5 5 5 3 4 6 6 7 7 6 6 5 4 4 5 6 7 8 1
13 11 11 10 10 10 9 9 8 8 7 7 7 7 6 6 5 4 5 5 5 5 4 4 5 5 4 4 4 5 6 6 6 6 6 5 4 4 4 5 6 7 7
11 10 10 10 9 9 8 8 8 8 8 8 6 6 5 4 4 3 3 3 4 5 4 4 4 4 3 3 3 3 4 5 6 5 6 5 4 3 3 4 5 5 5
10 10 9 9 8 8 8 8 8 8 7 6 5 5 5 4 3 3 3 4 4 4 4 4 3 2 2 3 3 2 3 4 6 6 5 5 4 3 3 3 3 4 3
10 9 9 8 8 8 8 8 8 7 6 5 5 4 3 3 3 2 2 3 3 4 3 2 1 1 2 2 2 3 3 3 4 5 5 4 4 3 2 3 3 3 3
9 9 8 8 8 8 8 8 7 6 5 5 3 3 3 2 1 2 2 2 2 2 2 -0 -0 0 1 1 2 3 5 4 4 5 5 4 4 2 2 1 2 3 2
8 7 7 7 7 7 7 6 5 5 4 4 3 3 2 -1 0 1 1 2 1 1 -1 -1 -0 -0 -0 0 2 4 5 5 5 4 4 4 3 3 2 1 1 2 2
7 7 7 7 6 6 6 5 5 4 4 4 3 1 0 0 0 0 1 1 1 -1 -1 -1 -1 -2 -1 -0 1 3 3 4 4 3 3 3 1 2 2 1 2 1 1
7 7 7 6 6 6 6 5 4 4 4 3 1 0 1 1 1 1 -0 0 -1 -2 -1 -2 -2 -2 -2 -1 0 1 1 2 2 2 1 0 1 1 1 1 1 1 1
7 7 6 6 6 6 5 4 4 3 3 2 1 0 0 0 0 -1 -0 -1 -2 -2 -2 -2 -2 -2 -2 -1 -1 -0 1 1 0 -0 -0 0 0 -0 -0 0 0 0 0
7 7 6 6 6 5 4 4 4 3 3 2 0 -0 -1 -1 -2 -1 -2 -2 -2 -2 -3 -3 -3 -3 -2 -2 -2 -1 -1 -1 -1 -1 -0 -0 -0 -0 -0 1 -0 -0 -1
7 6 6 6 5 4 4 4 3 3 2 0 -0 -1 -1 -3 -2 -2 -2 -2 -2 -3 -3 -4 -4 -3 -3 -3 -3 -2 -2 -2 -2 -2 -1 -1 -0 -0 -0 -0 -1 -1 -1
7 6 6 6 5 4 3 3 3 2 1 0 -1 -2 -3 -3 -3 -3 -3 -3 -3 -3 -3 -4 -4 -4 -4 -4 -4 -3 -2 -2 -2 -2 -2 -2 -2 -2 -2 -1 -1 -1 -1
6 6 5 5 4 3 3 2 2 1 1 -0 -2 -3 -3 -3 -3 -3 -3 -3 -4 -4 -4 -4 -4 -5 -5 -4 -4 -3 -3 -2 -2 -3 -3 -3 -3 -2 -2 -2 -1 -1 -1
6 5 5 4 3 3 2 2 1 1 0 -1 -3 -3 -4 -4 -4 -4 -4 -4 -4 -4 -4 -4 -4 -5 -5 -4 -4 -3 -3 -3 -3 -3 -3 -3 -3 -3 -3 -3 -3 -3 -2
5 4 4 4 3 3 2 2 1 -0 -2 -3 -3 -4 -4 -4 -4 -4 -4 -4 -4 -4 -4 -4 -5 -5 -4 -5 -4 -4 -4 -3 -3 -4 -4 -4 -4 -4 -4 -4 -4 -3 -3
4 4 4 3 3 3 2 2 1 -1 -3 -3 -4 -4 -4 -4 -4 -4 -4 -4 -4 -4 -3 -4 -4 -4 -4 -4 -4 -4 -4 -4 -4 -4 -4 -4 -4 -5 -4 -5 -5 -5 -4
4 3 2 2 2 2 2 1 -0 -4 -3 -3 -4 -4 -4 -5 -5 -4 -4 -4 -4 -4 -4 -4 -4 -4 -4 -4 -4 -4 -4 -5 -5 -4 -3 -4 -4 -4 -5 -5 -4 -4 -4

GFSMW_850_temp_201.txt.gz
Temp
16 16 17 17 18 18 17 17 17 15 15 14 14 14 14 14 14 13 13 13 13 12 13 12 13 13 13 12 12 12 12 12 11 10 10 9 9 8 8 8 8 8 7
15 15 15 16 16 16 15 15 15 15 15 15 15 14 14 14 13 13 13 12 12 12 11 12 12 12 12 12 12 12 12 12 10 9 8 6 7 7 7 7 7 8 7
14 14 14 14 14 14 14 14 14 14 14 14 14 14 14 14 14 13 13 12 12 11 11 11 11 11 10 11 11 11 11 11 11 11 8 6 6 6 6 6 6 6 6
14 14 13 13 13 13 13 13 13 13 13 12 12 12 12 11 11 12 12 12 11 11 11 11 11 11 11 10 9 9 10 11 9 7 6 8 8 5 5 5 5 5 5
14 14 14 13 13 13 12 12 12 12 12 11 11 11 11 11 10 10 10 9 9 9 9 9 9 9 9 9 9 8 8 8 9 8 8 7 6 7 5 4 4 4 4
14 13 13 13 13 12 12 12 12 12 12 11 11 11 10 10 9 9 9 9 9 9 10 10 9 8 8 8 8 7 7 7 7 7 7 6 5 6 7 5 3 4 4
13 13 13 12 12 12 12 12 12 12 11 11 10 10 9 9 9 8 8 8 8 8 8 9 8 8 7 7 7 7 6 6 6 6 6 6 5 5 5 5 4 2 2
13 13 12 12 11 11 11 11 11 10 10 10 9 9 9 9 8 7 7 7 7 7 7 7 7 7 5 5 4 4 5 6 5 6 6 6 6 6 6 5 4 2 1
12 12 11 11 11 11 10 10 10 9 9 9 8 8 8 7 7 6 7 7 7 6 6 5 5 5 5 4 4 4 3 3 4 5 5 5 5 5 5 5 4 4 1
11 11 11 11 10 10 10 9 9 8 8 8 8 7 6 6 6 6 5 6 6 5 5 4 3 3 4 4 4 4 3 2 3 4 4 5 6 5 5 4 4 3 4
11 10 10 10 9 9 9 8 8 8 7 7 6 6 6 5 5 5 5 6 5 4 3 3 3 3 4 4 3 2 2 2 2 3 4 5 5 5 4 5 4 3 2
10 10 10 9 9 8 8 8 8 7 6 6 6 5 5 5 5 5 5 4 3 2 1 2 2 3 3 3 2 1 1 1 1 2 2 3 5 5 5 5 3 3 2
9 9 9 8 8 7 7 7 7 6 6 6 5 5 5 4 5 5 4 2 -0 0 1 1 1 1 1 -0 -1 -1 -1 -1 -0 1 1 3 4 5 5 4 4 2 2
9 8 8 7 7 7 7 7 7 6 5 5 5 5 5 4 4 3 1 0 -0 0 1 1 0 -1 -1 -1 -2 -2 -1 -1 -0 1 1 1 2 5 4 4 3 2 1
7 7 7 7 7 7 7 7 6 5 5 5 5 5 4 3 2 2 1 1 1 1 -0 -1 -2 -2 -2 -2 -2 -1 -1 -0 1 2 3 3 3 3 4 4 2 1 1
7 7 7 7 7 7 6 6 5 5 5 5 4 4 3 2 1 0 -0 -1 -1 -1 -1 -2 -2 -2 -2 -2 -1 -1 -0 -0 2 3 4 4 3 4 4 4 3 2 1
7 7 7 7 7 6 6 5 5 4 4 4 4 3 2 1 -0 -1 -2 -2 -2 -2 -2 -3 -2 -2 -2 -2 -1 -1 -1 -0 0 2 4 4 4 4 3 2 1 1 1
7 7 7 7 6 6 6 5 4 4 4 3 3 2 1 -1 -1 -3 -2 -2 -2 -2 -3 -3 -3 -2 -2 -3 -3 -2 -1 -1 0 2 2 3 2 2 1 1 0 -0 0
7 7 6 6 6 6 5 4 4 4 3 2 2 0 -1 -2 -2 -3 -3 -2 -2 -3 -3 -3 -3 -3 -3 -3 -3 -2 -1 -1 -0 0 1 2 1 1 1 -0 -0 -1 -1
7 6 6 6 6 5 5 4 4 3 2 1 -0 -1 -2 -2 -2 -2 -2 -2 -3 -3 -3 -3 -3 -3 -4 -4 -4 -3 -2 -1 -1 -1 -0 0 0 0 0 -0 -0 -0 0
6 6 6 6 5 5 4 4 3 2 1 -0 -1 -1 -1 -2 -3 -2 -2 -3 -3 -4 -4 -3 -3 -4 -4 -4 -4 -3 -3 -2 -2 -2 -1 -1 -1 -0 -0 -0 -0 0 -0
6 6 6 5 5 4 4 3 3 2 1 -1 -1 -1 -1 -3 -3 -3 -3 -3 -4 -4 -4 -4 -4 -4 -5 -4 -4 -4 -3 -3 -2 -2 -2 -1 -1 -1 -1 -1 -1 -1 -1
6 6 5 5 4 4 3 3 2 1 -1 -1 -1 -2 -2 -3 -3 -3 -3 -4 -4 -4 -4 -4 -4 -4 -5 -4 -4 -4 -4 -3 -3 -3 -3 -3 -3 -2 -2 -2 -2 -1 -1
6 5 5 4 3 3 3 2 1 0 -1 -1 -2 -2 -3 -3 -3 -4 -4 -4 -4 -4 -4 -4 -4 -4 -4 -5 -4 -4 -4 -3 -3 -3 -3 -3 -3 -3 -3 -3 -2 -2 -2
5 5 4 3 3 2 1 1 0 -2 0 0 -2 -3 -3 -3 -4 -4 -4 -4 -4 -4 -4 -4 -4 -4 -4 -5 -4 -4 -4 -4 -4 -4 -4 -4 -3 -3 -4 -3 -3 -3 -3
4 4 3 2 2 1 1 0 -1 -1 1 -0 -2 -3 -4 -4 -4 -4 -4 -4 -4 -4 -4 -4 -4 -4 -5 -5 -4 -4 -5 -5 -5 -5 -5 -5 -4 -4 -4 -4 -4 -4 -3

GFSMW_850_temp_204.txt.gz
Temp
16 17 17 18 19 20 20 19 17 15 15 15 14 14 15 15 14 14 13 13 12 12 12 12 12 11 12 12 12 12 12 13 12 12 11 10 10 10 10 9 8 9 9
15 15 16 16 16 17 16 15 14 14 14 14 14 14 14 14 14 14 13 13 13 12 11 11 11 11 11 12 10 10 11 11 11 11 9 6 7 7 7 8 8 7 8
15 15 14 14 14 14 14 15 14 14 14 14 14 14 14 13 13 12 12 11 11 11 11 11 11 11 10 10 10 10 10 9 10 10 9 6 6 7 7 6 7 7 7
14 14 14 14 14 14 14 14 14 14 13 13 13 13 13 12 12 11 11 11 10 10 10 10 10 10 10 10 9 9 9 9 7 8 8 8 8 6 5 5 6 7 7
13 13 13 13 13 14 14 13 13 13 12 12 12 12 11 11 10 10 9 9 9 9 9 9 9 9 9 9 9 9 8 8 8 7 7 7 7 6 7 6 5 6 6
13 13 13 12 12 12 12 12 12 12 12 11 11 11 10 10 9 9 9 9 9 9 9 9 9 9 9 8 8 8 7 7 7 7 7 6 6 6 6 5 5 5 5
13 12 12 12 12 12 12 11 11 11 11 10 10 10 9 9 9 9 9 9 8 8 8 8 8 9 9 9 7 6 5 5 5 5 5 5 5 6 5 5 5 4 3
12 12 12 12 11 12 11 11 11 10 10 10 9 9 9 9 8 8 8 7 6 6 7 8 8 8 7 7 6 4 4 4 4 4 4 4 4 4 5 5 5 4 3
12 12 11 11 11 11 11 11 10 10 9 9 9 9 9 8 8 7 7 6 7 7 7 7 7 6 5 4 3 3 4 4 4 4 3 3 3 3 4 5 5 5 2
11 11 11 11 11 11 10 10 10 9 9 9 9 8 8 8 7 6 6 6 6 7 7 6 5 4 2 2 2 2 3 3 4 3 2 2 2 3 4 4 5 4 4
11 10 11 11 10 10 9 9 9 9 8 8 8 7 6 6 5 5 6 6 6 5 4 3 1 0 1 1 2 1 1 2 2 2 2 1 1 2 3 4 4 4 4
11 11 11 10 9 9 9 9 8 8 8 7 6 6 5 5 5 5 6 5 4 3 2 1 0 -0 -0 -0 -0 0 0 -0 -0 0 1 1 1 2 3 3 4 4 4
10 10 9 9 9 8 8 8 8 7 7 6 5 5 5 5 5 5 4 4 3 3 0 -0 -0 0 0 0 -0 -1 -1 -2 -2 -2 -1 -1 -1 0 1 2 3 4 4
10 9 9 8 8 8 8 8 7 6 6 5 5 5 5 4 5 4 3 3 2 2 1 -1 -1 -1 -1 -2 -2 -2 -2 -2 -2 -2 -2 -2 -1 -1 -0 2 3 4 3
9 8 8 8 8 8 7 7 6 5 5 5 4 4 4 4 4 3 3 3 2 -1 -1 -1 -1 -2 -2 -2 -2 -3 -3 -3 -2 -1 -1 -1 -1 -0 -0 1 3 3 3
8 8 8 8 7 7 7 6 6 5 5 4 4 4 4 3 3 3 2 2 0 -1 -1 -2 -2 -2 -2 -3 -3 -2 -3 -2 -2 -1 -1 -1 -0 0 0 1 1 4 3
8 7 7 7 7 7 6 6 5 5 4 4 4 4 3 3 3 2 1 0 -1 -2 -3 -3 -3 -3 -3 -3 -2 -2 -3 -2 -2 -1 -0 1 2 3 3 2 1 3 3
8 7 7 7 7 6 6 6 5 4 4 4 3 3 3 2 2 1 -0 -1 -3 -3 -3 -3 -3 -4 -3 -3 -3 -3 -3 -3 -2 -1 0 1 2 3 3 1 1 3 3
8 7 7 7 7 6 6 5 4 4 4 3 3 2 2 1 1 -1 -2 -3 -4 -4 -4 -4 -4 -3 -4 -4 -3 -3 -3 -3 -2 -1 -1 1 2 3 3 2 2 1 -0
8 7 7 7 6 6 5 4 4 4 3 3 2 1 0 -0 -1 -2 -3 -3 -4 -4 -4 -4 -3 -4 -3 -3 -3 -3 -3 -3 -2 -1 -1 -0 1 1 1 2 1 -1 -1
7 6 6 6 6 5 4 4 4 3 3 2 1 0 -1 -1 -2 -3 -4 -4 -4 -3 -3 -3 -4 -4 -3 -3 -3 -3 -4 -3 -2 -2 -2 -1 -1 -0 -0 0 -0 -0 -1
7 6 6 6 5 4 4 4 3 3 2 1 1 -0 -1 -2 -3 -3 -4 -4 -4 -3 -3 -3 -4 -4 -4 -4 -4 -4 -4 -3 -3 -2 -2 -2 -2 -1 -1 -1 -1 -0 -1
6 6 6 5 4 4 3 3 3 2 2 1 0 -1 -2 -3 -3 -4 -4 -4 -3 -3 -3 -4 -4 -4 -4 -4 -4 -4 -4 -3 -3 -3 -3 -2 -2 -2 -2 -2 -2 -1 -1
6 6 5 4 4 3 3 3 2 2 1 1 -1 -2 -2 -3 -4 -4 -4 -3 -3 -4 -3 -4 -4 -4 -4 -4 -4 -4 -4 -4 -4 -3 -3 -3 -2 -2 -2 -2 -2 -1 -2
6 5 5 4 3 3 2 1 1 1 1 -0 -1 -2 -3 -3 -4 -4 -3 -3 -3 -3 -4 -4 -5 -5 -4 -5 -5 -5 -4 -4 -4 -4 -3 -3 -3 -3 -3 -3 -3 -2 -2
5 4 4 3 2 1 1 0 0 1 0 -1 -2 -3 -3 -4 -4 -3 -3 -3 -3 -3 -4 -5 -5 -5 -5 -5 -5 -5 -5 -5 -5 -4 -4 -4 -4 -4 -4 -3 -3 -3 -3

GFSMW_850_temp_210.txt.gz
Temp
20 21 20 20 21 21 20 19 21 20 18 17 16 14 14 14 14 14 13 13 14 13 13 13 13 13 11 12 12 12 11 11 11 11 12 12 12 11 12 11 11 10 9
19 20 19 18 20 20 20 20 20 18 15 16 15 14 14 13 12 13 13 13 13 13 14 14 13 13 13 12 11 10 10 10 10 8 9 9 10 10 11 11 12 11 11
19 18 16 17 17 16 19 18 18 17 15 14 14 14 14 13 13 13 14 14 14 13 13 13 13 12 12 10 10 9 8 9 9 9 8 10 11 12 8 10 10 10 10
20 19 16 15 15 14 13 14 15 14 14 14 14 13 13 13 12 13 13 13 13 13 13 12 12 11 11 10 9 8 8 8 8 9 9 8 8 8 9 10 7 8 8
20 18 16 15 13 13 13 13 14 14 13 13 13 13 13 13 13 13 13 13 12 12 11 11 10 10 10 9 9 9 9 7 7 8 8 8 7 7 6 7 8 6 7
18 17 15 14 12 12 11 11 11 12 13 13 13 13 13 13 13 13 12 11 11 11 11 10 10 10 9 9 9 9 8 8 6 6 6 7 8 8 8 6 7 7 7
18 16 15 14 13 11 10 11 11 12 13 13 13 13 12 12 11 11 11 10 10 10 9 9 9 8 8 8 7 6 6 6 4 4 5 6 6 7 7 6 7 7 7
17 15 14 14 12 11 11 11 11 12 12 12 12 12 11 11 11 11 10 10 9 7 7 8 8 8 8 8 7 6 5 3 3 3 4 4 5 6 6 6 6 5 6
15 15 14 13 12 11 10 10 10 12 12 11 11 11 11 11 10 10 9 8 7 6 6 7 7 7 7 7 6 4 3 2 2 2 3 3 3 4 4 4 4 5 5
15 14 14 12 12 11 10 10 10 11 11 11 10 10 10 10 9 9 8 7 7 7 7 7 7 6 6 5 3 1 1 1 1 1 1 1 1 2 2 3 3 4 4
15 14 13 12 12 11 9 9 9 9 10 10 10 9 9 9 8 8 7 7 7 7 7 6 6 5 4 2 1 0 -0 -0 0 0 0 0 0 1 1 1 2 2 2
15 13 12 12 11 10 9 8 8 9 9 9 9 9 9 8 7 7 7 6 6 6 5 4 4 4 3 3 2 -0 -2 -2 -2 -1 -1 -1 -1 -1 -1 -0 0 1 1
13 12 12 11 10 9 8 8 9 9 9 9 8 8 8 7 7 6 6 5 5 5 4 4 4 3 3 1 -0 -2 -3 -3 -2 -3 -3 -2 -2 -2 -2 -2 -1 -1 -1
13 12 12 10 9 8 8 7 8 8 8 8 8 7 7 6 6 5 5 5 5 4 4 4 3 1 -1 -1 -1 -2 -2 -2 -2 -2 -3 -3 -3 -3 -3 -2 -2 -2 -2
12 12 11 10 9 8 7 7 7 8 8 8 7 7 6 6 5 5 5 5 4 3 3 1 0 -1 -1 -1 -2 -2 -3 -2 -3 -3 -3 -3 -3 -3 -2 -2 -2 -2 -2
12 12 10 9 8 7 7 6 7 8 7 7 7 6 5 4 5 5 4 4 3 2 1 -1 -2 -1 -2 -2 -2 -2 -2 -2 -3 -2 -2 -2 -2 -1 -1 -1 -1 -1 -2
12 11 10 9 8 7 7 6 7 8 7 7 6 5 4 5 4 4 3 3 2 0 -1 -2 -2 -1 -2 -2 -2 -2 -2 -2 -2 -2 -2 -2 -1 -1 -1 -0 -0 -0 -0
12 11 9 7 7 7 7 6 7 7 7 6 5 5 5 4 4 3 2 1 -0 -1 -2 -2 -2 -2 -2 -2 -2 -2 -2 -1 -2 -2 -2 -2 -1 -1 -1 -1 1 2 1
11 8 7 8 8 6 6 7 7 7 6 5 5 4 4 4 3 2 0 -1 -2 -2 -2 -2 -2 -2 -2 -2 -2 -2 -1 -2 -2 -2 -2 -2 -1 -2 -1 -0 1 2 1
8 6 8 9 8 7 7 7 6 6 5 5 4 4 4 3 1 -0 -1 -1 -2 -2 -1 -2 -2 -3 -2 -2 -3 -2 -2 -3 -2 -2 -1 -1 -2 -2 -1 -1 0 0 -0
7 7 8 8 7 6 6 6 6 6 5 4 3 3 3 1 0 -1 -1 -1 -2 -2 -2 -2 -2 -2 -2 -3 -3 -2 -3 -3 -3 -3 -2 -2 -3 -2 -2 -1 -1 -1 -1
8 9 7 4 6 6 6 5 6 5 4 3 3 2 2 1 -1 -1 -1 -1 -2 -2 -2 -2 -3 -2 -2 -3 -3 -2 -3 -3 -3 -3 -3 -3 -3 -3 -3 -3 -3 -1 -1
7 6 4 5 6 5 5 6 4 4 3 3 2 2 1 -0 -1 -1 -1 -2 -2 -2 -2 -2 -2 -2 -3 -3 -3 -3 -3 -3 -3 -4 -4 -3 -3 -3 -3 -3 -2 -2 -2
4 3 5 6 5 5 5 4 3 3 2 2 2 1 -0 -1 -1 -1 -2 -2 -2 -2 -2 -3 -3 -3 -4 -3 -3 -3 -2 -3 -3 -3 -3 -3 -3 -3 -3 -3 -3 -3 -3
3 5 6 4 4 3 3 3 2 2 2 1 1 0 -1 -1 -2 -2 -2 -2 -3 -2 -3 -3 -3 -4 -4 -3 -4 -4 -3 -3 -3 -3 -3 -2 -3 -3 -3 -4 -4 -5 -4
4 5 3 2 3 3 3 2 2 2 1 0 -0 -1 -1 -2 -3 -3 -3 -3 -3 -3 -4 -4 -4 -4 -4 -3 -3 -4 -4 -4 -3 -3 -3 -3 -3 -4 -5 -5 -5 -5 -6

GFSMW_850_temp_216.txt.gz
Temp
28 27 26 24 23 23 24 22 21 20 18 16 15 15 15 15 15 16 14 14 14 14 14 14 14 14 13 12 12 12 12 12 12 11 12 11 12 12 12 13 13 13 12
28 27 25 24 22 22 22 22 21 20 18 15 16 15 15 15 14 14 14 14 13 14 14 13 12 12 13 13 13 13 13 12 12 11 10 11 11 12 12 12 12 11 11
27 27 25 25 22 21 21 21 20 20 18 16 15 15 14 14 14 14 13 14 13 13 13 13 13 13 14 14 14 13 12 11 11 10 9 10 11 11 11 11 11 10 10
27 27 25 24 23 21 20 20 20 19 18 15 15 14 14 14 14 14 13 13 13 13 13 14 14 14 14 14 13 12 11 11 10 11 11 9 9 8 8 9 9 9 9
27 27 27 24 22 20 19 19 18 17 17 14 14 14 14 14 14 13 12 12 12 13 13 14 14 14 13 13 12 12 12 11 10 9 8 7 7 7 7 7 7 8 9
27 27 26 24 22 20 19 18 16 15 14 14 13 14 14 14 13 12 12 12 12 12 13 13 14 13 12 12 12 11 10 9 8 8 7 5 5 5 5 6 6 6 6
27 26 25 23 20 19 18 17 15 14 13 13 13 14 14 13 14 12 11 12 12 11 11 11 12 12 12 11 10 10 9 9 7 5 5 4 4 4 4 5 5 4 4
26 25 24 23 20 19 17 16 14 13 13 13 13 13 13 12 12 12 11 11 11 11 12 12 11 11 10 9 9 9 8 7 6 5 4 3 3 3 3 3 3 3 3
25 24 23 22 19 18 16 14 13 12 12 12 12 11 12 12 12 11 12 11 12 11 11 11 10 10 9 9 8 8 7 6 5 4 2 2 2 2 2 2 2 2 2
25 25 23 22 19 17 15 13 12 11 11 11 11 12 11 11 11 11 11 11 11 10 10 10 10 9 9 8 8 7 6 4 3 2 1 1 1 0 -0 -1 0 0 1
24 24 23 21 18 16 14 13 13 12 11 10 11 11 10 10 11 11 11 11 10 10 10 9 9 8 8 7 6 5 4 3 3 2 1 1 -0 -1 -2 -1 -2 -1 -1
24 23 21 19 17 15 13 13 13 12 11 10 10 10 10 10 11 11 11 11 10 10 10 9 8 8 7 6 5 4 3 2 2 2 1 1 0 0 -1 -2 -3 -2 -2
23 23 20 18 16 15 13 13 12 11 10 10 9 9 9 10 10 10 10 10 10 9 9 8 8 7 6 4 4 3 2 2 1 1 0 0 -0 -2 -3 -3 -3 -3 -3
22 22 19 17 15 14 13 12 12 11 10 9 8 9 9 10 10 10 10 10 9 8 8 8 7 6 4 3 2 2 2 1 1 1 0 0 -2 -3 -3 -3 -3 -3 -3
23 22 18 16 14 13 12 12 11 10 9 8 8 8 9 10 10 10 9 8 8 8 8 6 5 4 3 2 2 2 2 1 1 1 0 -1 -2 -3 -3 -3 -3 -3 -3
22 20 18 16 14 13 12 11 11 9 9 8 7 8 8 9 9 9 8 8 8 8 6 5 4 3 2 2 2 1 1 -0 -0 -0 -1 -0 -2 -2 -1 -1 -2 -3 -3
22 20 18 16 14 13 12 11 10 9 8 7 7 7 8 9 8 8 8 8 8 6 4 4 3 2 2 2 1 0 -0 -0 -0 -1 -2 -1 -2 -2 -2 -2 -3 -2 -2
21 20 18 16 14 13 11 10 9 8 7 6 7 7 8 8 7 7 8 7 6 4 3 3 2 1 1 1 1 0 -0 -0 -1 -2 -2 -3 -2 -2 -4 -2 -2 -1 -1
21 20 18 16 15 13 11 10 8 6 6 7 6 6 7 7 7 7 8 7 5 3 2 2 1 1 1 1 0 0 -0 -1 -1 -1 -2 -3 -2 -2 -2 -2 -2 -1 -1
20 19 18 16 14 12 10 9 7 6 5 6 5 6 6 6 7 7 6 6 3 2 2 1 1 1 0 -0 -0 -1 -1 -1 -1 -2 -2 -3 -3 -1 -1 -2 -3 -2 -2
18 17 16 15 13 11 9 8 6 5 4 4 4 5 5 6 6 6 5 4 2 2 1 1 0 -0 -1 -1 -1 -2 -1 -2 -2 -2 -2 -3 -3 -1 -0 -2 -3 -3 -2
17 16 15 13 12 10 8 6 5 5 4 4 4 4 5 5 4 4 4 3 2 1 1 -1 -3 -3 -2 -2 -2 -2 -2 -3 -3 -4 -3 -3 -3 -2 -1 -3 -3 -3 -2
14 14 13 11 9 8 7 6 4 4 4 4 3 3 3 3 3 3 2 2 1 0 -1 -3 -3 -3 -2 -2 -2 -2 -2 -3 -3 -5 -4 -4 -3 -2 -2 -3 -3 -3 -3
12 10 10 8 6 6 6 5 4 3 3 1 1 2 2 2 3 1 1 1 0 -1 -3 -3 -2 -3 -3 -2 -3 -3 -3 -3 -4 -5 -4 -3 -4 -4 -3 -3 -4 -5 -4
10 9 8 6 4 4 4 3 2 0 -0 0 1 2 2 2 1 0 0 -0 -1 -2 -3 -2 -2 -2 -3 -3 -3 -3 -3 -4 -5 -5 -4 -3 -4 -4 -6 -5 -5 -5 -6
6 5 4 4 3 1 1 0 -0 -0 0 0 2 1 1 0 -0 -0 -1 -2 -2 -2 -2 -3 -3 -3 -3 -4 -4 -4 -4 -5 -5 -5 -5 -6 -6 -6 -6 -6 -6 -6 -6

GFSMW_850_temp_219.txt.gz
Temp
27 28 27 27 26 25 24 23 22 21 20 18 19 17 17 15 15 14 15 14 14 14 14 14 14 14 14 13 13 13 14 14 13 14 14 15 15 15 14 14 13 12 12
27 27 27 26 26 25 24 22 22 21 20 20 19 19 15 15 14 15 15 14 14 14 14 14 13 13 13 13 13 13 13 14 13 12 12 11 13 13 12 11 11 11 11
26 26 26 26 26 25 24 21 21 21 20 20 18 17 15 14 14 14 13 13 13 13 14 13 13 13 13 13 13 13 14 14 13 12 10 9 10 10 11 11 11 11 10
26 27 25 26 26 25 25 23 21 21 20 20 19 18 16 14 14 14 13 13 13 13 13 13 13 13 13 13 13 13 13 12 12 11 11 9 7 6 6 7 8 8 8
26 26 24 25 26 26 24 23 22 21 19 18 18 17 15 14 14 14 14 13 13 13 13 13 12 13 14 14 13 13 12 11 10 10 10 10 9 8 6 4 5 5 5
26 26 26 25 25 24 23 22 21 20 18 17 16 16 15 14 14 14 14 13 13 13 12 13 13 14 13 13 12 13 11 11 10 9 8 7 6 5 5 4 4 4 4
25 25 26 24 24 23 22 20 20 19 18 17 16 15 14 14 14 14 13 13 12 12 13 13 13 13 12 12 12 12 11 10 9 8 7 6 5 4 3 3 3 3 3
24 25 27 25 23 22 21 20 19 18 17 16 15 14 14 14 14 14 14 12 12 12 12 11 11 12 12 11 11 10 9 9 8 7 6 6 5 4 3 2 2 1 1
24 24 24 24 22 21 21 20 19 17 16 15 14 13 13 13 13 12 11 11 11 11 11 11 12 11 11 11 10 9 9 8 7 7 6 5 5 4 3 2 1 -0 -1
24 24 24 24 23 22 21 19 18 16 15 15 13 13 13 12 11 11 11 11 11 11 12 12 11 11 10 10 9 9 8 7 6 6 5 4 4 3 2 0 -0 -1 -2
24 24 24 24 23 21 20 17 16 15 15 14 13 12 12 10 11 11 11 11 11 12 11 11 11 10 9 9 8 7 6 6 5 4 4 3 1 1 0 -1 -1 -3 -3
23 23 23 22 21 20 18 17 16 15 15 14 12 11 11 11 11 11 11 11 11 11 11 10 10 9 8 8 7 6 6 6 4 3 2 1 0 0 -0 -1 -3 -3 -3
22 22 22 22 21 19 17 15 15 14 13 13 11 11 10 10 10 10 11 11 11 10 10 10 9 8 7 7 6 6 5 4 3 2 1 1 0 0 -1 -3 -3 -3 -3
21 22 21 20 19 18 16 15 14 13 11 11 11 11 10 10 10 10 10 10 10 10 9 9 8 7 6 7 6 5 4 2 2 1 1 1 1 -1 -2 -2 -3 -3 -3
21 22 21 20 16 15 15 14 14 13 11 11 10 10 9 9 9 10 9 9 9 9 9 8 7 6 7 6 5 3 2 2 2 1 2 1 -0 -0 -1 -2 -2 -3 -3
20 21 20 19 17 16 15 14 13 13 12 11 10 10 9 9 9 8 8 8 8 8 8 7 7 8 6 4 4 3 2 1 1 2 1 1 0 0 0 0 -1 -2 -4
21 21 20 18 18 16 15 14 13 12 11 10 10 9 9 9 8 8 8 7 7 7 7 7 7 7 4 3 2 2 1 1 1 1 1 1 0 -0 -0 1 -0 -1 -1
19 20 19 19 17 16 14 13 12 11 10 9 9 8 8 8 7 7 7 7 7 6 6 6 7 4 3 2 1 1 1 1 0 0 0 -0 -1 -1 -0 -1 -2 -1 -2
19 20 20 20 19 17 14 12 11 10 9 9 8 8 8 8 7 7 6 6 5 6 5 6 4 2 2 1 1 1 1 0 0 -0 -0 -1 -1 -0 -1 -2 -1 -2 -2
19 20 19 19 17 14 12 11 10 9 8 8 7 7 8 7 7 5 5 5 5 4 6 3 1 1 1 1 1 1 1 0 -0 -0 -1 -2 -2 -2 -2 -1 -2 -3 -2
19 19 19 17 16 14 12 11 10 9 8 7 7 7 6 6 5 5 4 4 4 4 3 1 -0 0 0 0 -0 0 -0 -1 -0 -0 -1 -1 -2 -3 -2 -2 -3 -4 -3
18 18 18 17 15 13 12 10 9 8 8 7 7 6 5 5 4 3 3 2 3 2 0 -1 -1 -1 -1 -0 -0 -1 -1 -1 -1 -1 -1 -3 -5 -3 -2 -2 -3 -3 -3
17 17 17 16 13 12 11 9 7 6 6 6 5 5 3 3 2 2 1 2 1 -1 -1 -1 -2 -2 -1 -1 -1 -2 -2 -2 -1 -2 -2 -4 -5 -3 -2 -3 -3 -3 -3
14 14 14 11 8 6 7 8 6 5 5 4 3 2 1 -0 0 -0 0 1 -1 -1 -1 -2 -2 -1 -1 -1 -2 -2 -2 -2 -2 -4 -4 -5 -4 -5 -3 -3 -3 -3 -3
12 13 11 9 7 6 3 3 3 3 3 2 0 -0 1 -0 -1 -0 -1 -1 -2 -2 -1 -2 -1 -1 -1 -1 -2 -3 -3 -3 -5 -5 -5 -4 -3 -5 -4 -4 -4 -4 -5
9 10 10 10 7 5 3 2 1 1 0 1 0 -0 -0 -0 -1 -2 -3 -4 -3 -3 -3 -2 -2 -2 -2 -2 -3 -3 -4 -6 -6 -6 -5 -4 -5 -5 -6 -7 -6 -5 -5

GFSMW_850_temp_225.txt.gz
Temp
25 26 26 26 26 25 24 25 25 25 24 23 21 21 21 20 19 18 18 17 17 16 16 15 15 14 14 14 14 13 13 13 13 13 13 13 13 14 15 16 16 15 14
24 25 26 26 26 26 27 26 26 26 25 24 23 21 21 20 20 18 17 17 17 16 15 15 15 14 14 13 13 13 13 12 12 12 12 13 15 15 15 15 14 14 12
24 25 26 26 26 26 27 26 27 26 25 25 21 20 19 18 18 17 17 17 14 15 14 14 14 14 14 13 13 13 13 13 12 12 12 12 13 14 14 14 14 13 13
24 24 24 25 26 26 27 26 25 25 25 24 22 21 21 20 20 19 17 16 15 15 14 14 14 14 14 13 13 13 13 12 12 12 12 12 11 11 11 13 14 13 12
23 24 24 24 25 26 26 25 24 24 24 24 23 21 20 20 20 19 17 16 15 14 14 14 14 14 14 14 13 13 12 12 12 12 12 12 11 10 8 8 11 11 11
23 24 24 24 24 24 24 24 24 24 23 23 22 21 21 20 19 17 16 15 14 14 14 14 14 13 14 13 13 12 12 12 12 13 12 12 10 9 8 4 4 5 9
22 23 23 24 23 23 23 23 23 22 22 23 21 20 19 20 19 19 18 15 14 14 14 14 13 13 13 13 12 12 11 12 12 12 12 11 10 9 8 6 5 2 3
21 22 22 23 23 23 23 22 23 22 21 21 20 20 19 18 19 18 17 16 15 14 14 13 13 13 12 12 11 12 12 13 12 12 11 10 9 8 7 6 4 2 1
21 21 22 22 23 23 23 23 23 22 20 20 19 20 19 18 18 18 16 15 15 14 14 13 13 12 12 11 12 12 12 12 12 11 10 10 9 8 7 5 3 1 -2
21 22 22 22 22 22 23 23 23 22 21 17 18 20 19 19 17 17 15 15 14 14 13 13 12 11 11 12 12 12 11 11 11 10 9 9 8 7 5 4 3 2 -1
20 21 21 21 22 21 21 22 22 20 18 17 17 19 18 17 16 16 15 14 14 14 13 12 11 10 11 11 11 11 11 10 10 9 8 8 6 6 4 3 2 2 0
19 19 20 21 22 22 22 22 20 18 17 16 17 18 16 15 15 15 14 13 13 12 11 12 10 10 11 10 11 11 10 10 9 8 7 6 6 5 4 3 3 2 2
18 18 19 20 20 21 20 19 19 17 16 17 18 17 15 15 14 14 13 13 12 10 9 9 10 10 10 10 10 10 9 9 8 7 6 5 5 4 3 3 2 2 1
16 17 18 19 19 20 19 18 16 16 16 16 16 16 15 14 13 13 12 12 11 9 9 9 9 9 9 10 9 9 9 8 7 6 5 4 3 4 3 2 2 1 1
14 15 16 17 18 19 19 17 16 16 15 15 15 14 14 14 12 12 12 11 9 9 9 8 9 9 10 9 9 8 7 6 5 4 4 3 3 3 2 2 1 1 1
12 13 15 16 17 17 18 18 17 16 15 15 14 14 13 13 12 12 11 10 9 9 9 9 9 9 8 8 8 7 6 5 4 3 2 3 3 2 1 1 1 0 0
12 13 15 15 16 17 17 18 19 17 15 14 13 13 12 12 12 11 10 9 9 9 9 9 9 8 8 7 6 6 4 3 3 2 2 3 2 1 1 1 1 1 -0
13 12 13 15 16 17 17 17 17 16 14 13 12 12 12 12 11 10 9 9 9 9 9 8 8 7 6 6 5 4 3 2 2 2 2 2 1 1 1 1 1 1 -1
12 12 12 13 15 16 16 16 16 17 14 13 12 12 12 12 10 9 9 9 9 8 8 7 7 6 6 4 4 3 2 2 1 2 2 1 1 1 1 1 1 0 -1
10 11 12 12 14 16 15 15 16 15 15 14 12 12 12 12 10 9 9 8 8 8 7 6 5 4 3 3 2 2 2 1 2 1 1 1 1 1 1 1 1 1 -0
9 10 11 11 13 15 14 15 14 14 15 12 11 11 10 10 9 8 8 8 7 6 5 4 4 3 2 1 1 1 1 1 1 0 -0 -0 -0 1 1 0 0 0 -1
8 10 10 11 12 14 13 14 15 16 12 11 10 10 9 8 8 8 7 6 6 4 4 4 3 2 1 1 0 0 1 0 -0 -0 -0 -1 -0 1 0 0 0 -1 -2
8 8 9 10 12 13 13 14 16 13 11 9 8 8 7 7 7 6 6 4 3 3 3 2 2 1 0 -1 -0 1 -0 -1 -1 -1 -1 -1 -0 -0 -0 -1 -2 -2 -2
8 7 8 9 11 11 11 10 12 11 9 8 6 5 5 5 5 4 4 3 3 2 2 1 1 0 -1 -1 -0 -1 -2 -2 -1 -1 -1 -2 -2 -2 -2 -2 -2 -2 -3
8 7 8 8 9 9 8 9 8 8 6 4 3 3 3 3 3 2 2 2 1 2 1 1 0 -0 -1 -0 -1 -2 -2 -3 -4 -4 -3 -4 -3 -4 -4 -4 -3 -3 -4
7 7 8 6 5 5 5 5 5 6 6 3 1 1 2 2 1 1 -0 -0 0 -0 -1 -1 -1 -2 -1 -1 -1 -2 -4 -5 -6 -5 -5 -5 -6 -5 -5 -4 -4 -4 -4